TIME,DELAY(SENSOR),PRES,T(CTD),SAL,OXYGEN,RAWTEMP,T(OPTODE),TCPHASE,FLUOR,BETA(BETA700),BETA(BETA412),BETA(BETA440),CDOM,C(CSC),ED(ED412.40),ED(ED444.00),ED(ED489.70),ED(ED554.30),LU(LU411.80),LU(LU443.40),LU(LU489.60),LU(LU554.10),COMP,TILTX,TILTX(TILTY),CHECK
1384032833,5809,497.5100097656250000,6.8628997802734375,34.1353988647460940,79.0735473632812500,591.4667968750000000,6.8595747947692870,48.8967018127441400,51,105,84,80,76,15265,2147745453,2147427209,2148008813,2147871387,2147623899,2147068608,2148244946,2147198400,2129,3,13,38032
1384032950,5812,486.0199890136719000,6.9896001815795900,34.1310005187988300,84.4875564575195300,586.9176025390625000,7.0060691833496090,48.1966209411621100,51,104,84,80,77,15266,2147745344,2147425892,2148008210,2147873270,2147623881,2147069750,2148244388,2147203922,1264,4,13,53127
1384033065,5807,474.8999938964844000,7.1849999427795410,34.1260986328125000,91.5112304687500000,581.5286865234375000,7.1793560981750490,47.3206291198730500,51,104,83,79,77,15265,2147744027,2147429412,2148008365,2147871058,2147621339,2147077312,2148243666,2147204132,3317,4,13,63375
1384033180,5809,463.7999877929687500,7.3063998222351070,34.1155014038085940,98.6206970214843800,577.6738891601562000,7.3031520843505860,46.4892005920410160,51,102,87,79,76,15265,2147744539,2147423872,2148009892,2147871113,2147622866,2147083355,2148237147,2147204937,2761,4,13,27287
1384033298,5808,452.5899963378906000,7.5012001991271970,34.0994987487793000,110.0835037231445300,571.5579833984375000,7.4992871284484860,45.2095909118652340,51,104,87,80,75,15264,2147741540,2147424868,2148010816,2147871433,2147620800,2147079817,2148239277,2147203593,1956,4,12,50754
1384033425,5810,440.6400146484375000,7.7890000343322750,34.0937995910644500,122.9436035156250000,562.1339111328125000,7.8008770942687990,43.8077583312988300,50,104,86,79,74,15264,2147739017,2147425819,2148007469,2147872585,2147621988,2147080036,2148238226,2147203785,1445,4,13,60996
1384033542,5803,429.4700012207031000,8.1370000839233400,34.0872001647949200,137.8376007080078000,552.0059814453125000,8.1241397857666020,42.2933998107910160,50,104,86,80,74,15264,2147740928,2147423277,2148008539,2147871104,2147619693,2147083062,2148236763,2147203245,1109,4,13,44413
1384033669,5808,417.6799926757812500,8.4788999557495120,34.0960998535156250,146.7397003173828000,541.0910034179688000,8.4715747833251950,41.3527183532714840,50,105,87,81,73,15262,2147736164,2147421641,2148006125,2147871012,2147615862,2147085586,2148234377,2147203474,3109,4,13,3852
1384033796,5807,406.2600097656250000,8.7204999923706050,34.1001014709472660,154.1885986328125000,533.6840820312500000,8.7067985534667970,40.6213989257812500,50,106,86,79,73,15263,2147737792,2147426797,2148007360,2147867684,2147616786,2147088576,2148234770,2147206436,1465,4,13,50992
1384033926,5809,394.9100036621094000,8.9388999938964840,34.1040000915527340,157.0420989990234400,526.6552734375000000,8.9296150207519530,40.2745704650878900,50,104,89,78,72,15263,2147736018,2147424685,2148008393,2147871131,2147613248,2147089984,2148229869,2147207981,494,4,13,15204
1384034053,5810,384.3800048828125000,9.2055997848510740,34.1083984375000000,164.6325988769531200,517.5858764648438000,9.2165651321411130,39.5370101928710940,50,105,82,80,71,15261,2147736283,2147422848,2148004388,2147869677,2147614253,2147093357,2148231122,2147204086,250,4,13,36250
1384034194,5804,373.9200134277344000,9.5829000473022460,34.1175003051757800,171.1112060546875000,505.9801025390625000,9.5828790664672850,38.8600616455078100,49,103,84,79,71,15261,2147736896,2147423021,2148007460,2147870555,2147611931,2147096640,2148225536,2147208640,2176,3,13,47564
1384034357,5809,362.6099853515625000,9.8528003692626950,34.1249008178710940,180.2299957275390600,497.9306030273437500,9.8363819122314450,38.0786590576171900,50,106,85,79,70,15262,2147732580,2147427273,2148006784,2147867693,2147606089,2147096429,2148223981,2147206180,317,3,13,48074
1384034535,5808,349.8299865722656000,10.3436002731323240,34.1403999328613300,194.6707000732422000,481.5051879882812500,10.3522901535034180,36.8461914062500000,49,103,84,80,70,15263,2147732068,2147421915,2148006582,2147869284,2147609499,2147098761,2148225298,2147207049,3055,3,13,13077
1384034671,5805,338.6600036621094000,11.1120004653930660,34.1731986999511700,211.1130065917968800,457.3857116699219000,11.1067304611206050,35.4499816894531250,49,105,83,79,68,15261,2147731702,2147427236,2148011465,2147868553,2147604041,2147099730,2148223104,2147207881,1250,4,12,52669
1384034837,5807,324.0299987792969000,11.5834999084472660,34.1941986083984400,207.4799041748047000,441.4417114257812500,11.6035404205322270,35.4043388366699200,49,103,84,79,69,15261,2147728109,2147426340,2148009078,2147869312,2147598628,2147112118,2148220123,2147206290,772,3,13,58112
1384034961,5807,311.8900146484375000,12.2781000137329100,34.2462997436523440,205.3222045898437500,419.9731140136719000,12.2703399658203120,35.1888999938964840,49,105,86,79,68,15260,2147725440,2147430473,2148014253,2147874157,2147600384,2147118564,2148217490,2147207323,2974,3,13,51516
1384035066,5806,301.1700134277344000,12.7293996810913090,34.2705993652343750,210.5294952392578000,404.8026123046875000,12.7401399612426760,34.6451988220214840,49,104,91,80,66,15259,2147725952,2147426806,2148021485,2147871954,2147594176,2147122770,2148216905,2147209206,1586,4,13,38547
1384035169,5808,290.2799987792969000,13.1126003265380860,34.2985992431640600,214.1761016845703000,392.7383117675781000,13.1130104064941400,34.2503089904785160,47,103,84,79,67,15259,2147723593,2147429366,2148022235,2147871597,2147591232,2147124845,2148216649,2147207606,2625,3,13,30712
1384035284,5809,278.4100036621094000,13.7435998916625980,34.3658981323242200,212.7322998046875000,372.7018127441406000,13.7309398651123050,34.0248298645019500,48,102,85,79,67,15259,2147720521,2147431350,2148034870,2147870665,2147592182,2147132388,2148219200,2147209792,2738,3,14,4840
1384035408,5811,267.4299926757812500,14.3306999206542970,34.4193992614746100,214.8535003662109400,353.3378906250000000,14.3267202377319340,33.6133804321289060,48,103,86,78,66,15254,2147721042,2147439241,2148044059,2147870381,2147587638,2147131236,2148222902,2147211090,3166,3,13,56930
1384035570,5809,257.4100036621094000,15.0889997482299800,34.4836006164550800,216.8598022460937500,330.1771850585937500,15.0377702713012700,33.1585807800293000,48,105,84,78,65,15252,2147717101,2147441600,2148053147,2147869504,2147585590,2147143616,2148219483,2147212690,3222,3,14,8356
1384035802,5803,244.5700073242187500,15.5980997085571290,34.5041999816894500,213.2545928955078000,312.0266113281250000,15.5940103530883790,33.0916900634765600,49,104,87,80,66,15252,2147714797,2147443520,2148059291,2147868525,2147579693,2147150720,2148222308,2147211638,1031,3,14,37634
1384035953,5808,233.6999969482422000,16.1399993896484380,34.5699005126953100,213.6551971435547000,294.4632873535156000,16.1315898895263670,32.8146591186523440,49,103,85,79,64,15252,2147718171,2147471579,2148125019,2147868598,2147578194,2147170276,2148251675,2147216905,627,3,14,5813
1384036124,5809,218.7799987792968800,17.2520999908447270,34.7099990844726560,215.2841949462890600,257.2109985351562500,17.2702808380126950,32.1949501037597660,50,103,83,79,64,15245,2147714596,2147507593,2148213778,2147870701,2147574930,2147197138,2148286829,2147216182,3031,3,14,2259
1384036236,5808,207.3399963378906200,18.2366008758544920,34.8373985290527340,213.9201965332031200,224.1244964599609400,18.2807598114013670,31.8073005676269530,50,102,86,79,63,15243,2147726866,2147551003,2148309421,2147872813,2147575469,2147233737,2148328228,2147219136,1569,2,15,44827
1384036348,5803,196.4100036621093800,18.9981002807617200,34.9486999511718750,215.8401031494140600,201.5287933349609400,18.9708805084228500,31.3941802978515620,51,104,85,80,63,15242,2147739282,2147609142,2148427529,2147872804,2147578962,2147270637,2148385398,2147225746,1746,2,14,29175
1384036403,5809,191.8200073242187500,19.1149005889892580,34.9698982238769500,216.5095977783203000,196.7447052001953000,19.1170291900634770,31.2931194305419920,52,103,86,79,63,15240,2147744173,2147651629,2148504585,2147871826,2147580416,2147296283,2148418925,2147230582,1392,2,14,56108
1384036458,5808,187.4499969482422000,19.2521991729736330,34.9896011352539060,216.9425964355468800,192.2639007568359400,19.2539405822753900,31.2096996307373050,51,104,85,80,63,15239,2147758180,2147688164,2148571209,2147874998,2147586587,2147330148,2148454866,2147234505,725,2,14,33877
1384036513,5807,183.1900024414062500,19.3677997589111330,35.0065994262695300,216.9212951660156200,188.0641021728515600,19.3822708129882800,31.1540107727050780,53,104,86,79,63,15237,2147773339,2147736310,2148664219,2147873289,2147588909,2147354925,2148497892,2147235108,3245,2,15,43542
1384036568,5806,178.9299926757812500,19.6196002960205080,35.0381011962890600,215.9371032714843800,180.4598999023437500,19.6146907806396500,31.1032009124755860,56,108,85,81,63,15228,2147795904,2147801828,2148774372,2147872621,2147599168,2147393846,2148547684,2147238875,3179,2,15,15944
1384036655,5812,172.6699981689453000,20.0781993865966800,35.1004981994628900,216.6539001464843800,164.9324035644531200,20.0895099639892580,30.8567905426025400,61,106,85,80,61,15226,2147838363,2147924004,2149000420,2147874898,2147617490,2147468571,2148653970,2147246070,92,2,14,13469
1384036720,5808,168.4900054931640600,20.1345005035400400,35.1132011413574200,217.6952056884765600,163.5908050537109400,20.1305599212646500,30.7845897674560550,62,107,88,80,61,15226,2147878537,2148028882,2149189421,2147875181,2147633005,2147530642,2148744539,2147256091,2926,2,15,14308
1384036775,5809,164.8500061035156200,20.3337993621826170,35.1335983276367200,217.5682067871093800,157.3278045654297000,20.3222007751464840,30.7077598571777340,66,109,86,80,62,15223,2147887762,2148045193,2149207643,2147874212,2147635602,2147534345,2148731456,2147253686,2222,2,15,51446
1384036830,5807,161.3000030517578000,20.4372997283935550,35.1482009887695300,217.8562011718750000,153.3834075927734400,20.4429302215576170,30.6401100158691400,68,110,86,79,62,15217,2147970852,2148256969,2149592530,2147875401,2147667931,2147663204,2148926043,2147272576,1600,1,15,56620
1384036897,5807,157.1399993896484400,20.5140991210937500,35.1571006774902340,218.2931060791015600,151.1997070312500000,20.5097808837890620,30.5885791778564450,71,110,84,81,62,15214,2148037037,2148415250,2149869101,2147878235,2147694299,2147748059,2149042715,2147280621,758,2,15,55502
1384036984,5806,152.6300048828125000,20.7238006591796880,35.1771011352539060,220.1497039794922000,145.0140075683593800,20.6992092132568360,30.4111309051513670,74,113,88,82,61,15215,2148091446,2148491190,2149963227,2147883218,2147715968,2147786386,2149076297,2147283648,608,2,15,24677
1384037096,5808,149.0700073242187500,20.8752002716064450,35.1952018737793000,221.5511932373047000,139.7478027343750000,20.8605403900146500,30.2704296112060550,80,114,88,82,62,15205,2148137206,2148574162,2150083913,2147882779,2147735835,2147830710,2149134043,2147288603,3184,2,15,46117
1384037292,5808,144.5200042724609400,20.9517002105712900,35.2070007324218750,223.9450988769531200,136.5240936279297000,20.9593296051025400,30.1074104309082030,81,114,85,80,60,15199,2148267766,2148834203,2150543497,2147884754,2147795648,2147984182,2149337426,2147306770,1558,1,15,57974
1384037386,5807,140.8200073242187500,21.1074008941650400,35.2242012023925800,224.6047058105468800,131.8753051757812500,21.1018390655517580,30.0137996673584000,85,117,89,82,60,15197,2148395593,2149083922,2150973257,2147891364,2147853522,2148119259,2149528356,2147319030,687,2,15,7846
1384037477,5809,136.7899932861328000,21.1460990905761720,35.2257995605468750,224.7420043945312500,130.4992065429687500,21.1440296173095700,29.9888801574707030,89,116,88,81,60,15197,2148359515,2148870171,2150456393,2147889828,2147838756,2147999972,2149297298,2147304100,3182,1,15,29049
1384037601,5817,131.2299957275390600,21.4230003356933600,35.2471008300781250,224.3896942138672000,121.3411026000976600,21.4249591827392580,29.8870906829834000,97,117,87,81,61,15185,2148920694,2149955556,2152319716,2147908406,2148055296,2148544969,2150079387,2147361435,2671,2,15,64944
1384037680,5809,127.4100036621093800,21.5811004638671880,35.2585983276367200,225.1134033203125000,116.7512969970703100,21.5658493041992200,29.7914390563964840,100,117,85,81,62,15172,2149251501,2150466843,2153032832,2147917193,2148181440,2148777590,2150351506,2147385170,2229,2,15,5609
1384037759,5807,123.5899963378906200,21.6042003631591800,35.2584991455078100,225.5319976806640600,115.3193969726562500,21.6098098754882800,29.7524299621582030,101,119,88,81,61,15171,2149720393,2151155702,2153978304,2147928676,2148355922,2149080137,2150715638,2147422902,2171,2,15,64700
1384037850,5808,119.7099990844726600,21.8292007446289060,35.2349014282226560,224.3545989990234400,108.5911026000976600,21.8164691925048830,29.7233200073242200,114,121,84,82,61,15155,2150576786,2152411913,2155758921,2147955126,2148652525,2149614985,2151387657,2147475236,2806,2,15,28755
1384037956,5810,115.8499984741211000,22.0527992248535160,35.2464981079101560,223.5986022949218800,100.3291015625000000,22.0704402923584000,29.6540203094482420,126,120,88,82,60,15145,2151591323,2153808420,2157571355,2147987026,2149003602,2150180132,2152049654,2147545801,2585,1,15,16992
1384038083,5809,112.3499984741211000,22.2903003692626950,35.1994018554687500,222.1378936767578000,93.7093887329101600,22.2740802764892580,29.6413192749023440,151,121,86,82,61,15126,2152695296,2155359186,2159471954,2148015122,2149360265,2150733394,2152673938,2147606336,1459,2,15,37288
1384038243,5811,107.9800033569336000,22.3684005737304700,35.2052001953125000,223.2879028320312500,90.9704132080078100,22.3583908081054700,29.5489997863769530,154,121,88,83,61,15121,2150450514,2151186020,2152707099,2147931017,2148509750,2148819684,2150024905,2147385673,197,1,16,53561
1384038344,5806,103.3099975585937500,22.5007991790771500,35.2140007019043000,225.2528991699218800,86.7790298461914000,22.4874496459960940,29.3982791900634770,152,124,89,84,61,15110,2156437558,2159848173,2164445604,2148134838,2150456859,2152165586,2154259474,2147777033,2885,2,15,10921
1384038423,5807,99.9000015258789000,22.7189006805419920,35.2332000732421900,226.4788055419922000,80.5510635375976600,22.6793403625488280,29.2587699890136720,158,125,88,82,60,15096,2158311268,2161977142,2166390848,2148191844,2151074660,2152912384,2154936338,2147856694,2899,1,16,57383
1384038478,5811,97.9700012207031200,22.7562007904052730,35.2364006042480500,228.5995025634765600,78.2227783203125000,22.7511196136474600,29.1266899108886720,159,120,89,83,60,15095,2160577289,2164753389,2169455588,2148257188,2151812315,2153917339,2156030820,2147965513,2932,1,16,10410
1384038565,5806,94.9499969482421900,22.8218002319335940,35.2462005615234400,230.5289001464843800,76.0294265747070300,22.8187503814697270,29.0064792633056640,151,123,88,83,61,15098,2158404013,2160971008,2163587108,2148156443,2151197769,2152566610,2154125312,2147798034,2535,1,15,63048
1384038631,5803,92.0500030517578100,23.1567993164062500,35.2524986267089840,230.7742004394531200,63.1418609619140600,23.2165508270263670,28.8316497802734380,112,120,87,84,60,15118,2167227163,2171666989,2175204059,2148465956,2154216539,2156533037,2157988809,2148221988,1698,1,16,37144
1384038686,5812,90.1399993896484400,23.6874008178710940,35.3036003112793000,235.4841003417968800,50.3299102783203100,23.6127204895019530,28.4510993957519530,98,126,90,84,56,15125,2171839241,2176922313,2180473499,2148569051,2156231360,2159235172,2160691757,2148473636,1136,2,15,8213
1384038777,5810,88.4100036621093800,23.7675991058349600,35.2882995605468750,238.9530029296875000,45.9927711486816400,23.7469997406005860,28.2387695312500000,95,124,88,83,56,15126,2176424886,2181485558,2184694345,2148763483,2158316681,2161677056,2162869650,2148697398,1799,1,15,13485
1384038877,5807,86.0999984741211000,24.0963993072509770,35.3175010681152340,241.0751037597656200,36.5708694458007800,24.0390090942382800,28.0264701843261720,84,126,90,85,58,15118,2178836470,2183374573,2185369252,2148791725,2159897536,2163124169,2163623405,2148782162,2567,2,15,51888
1384038942,5809,83.9700012207031200,24.3054008483886720,35.3405990600585940,243.2174072265625000,29.4256191253662100,24.2607593536376950,27.8431091308593750,77,125,88,85,60,15116,2182692763,2186965293,2188509394,2148947419,2162038692,2165551332,2165553152,2148975040,3116,2,15,42252
1384038997,5806,81.8899993896484400,24.5270996093750000,35.3474006652832000,244.2631988525390600,22.0160102844238280,24.4909896850585940,27.7058601379394530,77,127,89,86,56,15117,2186588946,2190810304,2192012955,2149107318,2164221312,2167920466,2167361508,2149157366,3442,1,15,18091
1384039052,5807,79.5800018310546900,24.6348991394042970,35.3531990051269500,246.7897949218750000,18.2670993804931640,24.6075897216796880,27.5501708984375000,77,125,91,85,58,15106,2189991524,2194112530,2194922669,2149307776,2166135058,2169921920,2168858459,2149318226,3062,1,16,54432
1384039107,5810,77.4300003051757800,24.7031993865966800,35.3577995300293000,247.8728027343750000,15.7874603271484380,24.6847496032714840,27.4730300903320300,74,129,91,84,56,15107,2192740041,2196719451,2197193929,2149493430,2168070683,2172079579,2170618249,2149505572,2957,1,16,57526
1384039194,5806,73.8700027465820300,24.7866992950439450,35.3596000671386700,248.9418945312500000,12.8072299957275390,24.7775402069091800,27.3908691406250000,73,133,91,86,57,15100,2200640987,2204148644,2203984219,2150037184,2172937673,2177191424,2174484269,2149959936,3039,1,16,6319
1384039260,5803,70.8300018310546900,25.0804004669189450,35.3657989501953100,248.5476989746093800,4.3303461074829100,25.0417194366455080,27.3044109344482420,71,128,96,86,57,15101,2208089051,2211268022,2210122752,2150559990,2177371108,2181713133,2177866642,2150337033,2942,1,16,42254
1384039315,5810,68.9000015258789000,25.2105998992919920,35.3725013732910160,248.3847045898437500,-0.4971474111080170,25.1923599243164060,27.2524204254150400,74,128,89,85,56,15101,2214087049,2217825188,2215901074,2150977252,2181414857,2185860726,2180790299,2150677330,2190,1,16,55575
1384039382,5808,67.3399963378906200,25.3078002929687500,35.3772010803222660,248.2304992675781200,-3.6751539707183840,25.2915992736816400,27.2204093933105470,71,127,90,85,57,15090,2219401728,2222158162,2219051245,2151218176,2185489115,2189911890,2183480676,2150961261,1381,1,16,60796
1384039506,5808,65.2900009155273400,25.4794006347656250,35.3837013244628900,247.6103057861328000,-9.5453290939331050,25.4750709533691400,27.1755104064941400,70,128,92,86,57,15097,2227774665,2230054848,2225957220,2152011776,2190858907,2194590308,2186140589,2151357193,1697,1,16,56342
1384039582,5805,63.2299995422363300,25.8759002685546880,35.3905982971191400,245.8838958740234400,-21.9821796417236330,25.8644905090332030,27.0982799530029300,67,126,91,85,56,15096,2222100160,2221393965,2215545929,2151716041,2189101961,2190551341,2181187648,2150863195,1991,1,16,24171
1384039685,5807,61.5999984741210940,26.6291007995605470,35.4159011840820300,242.2720031738281200,-43.1864204406738300,26.5307598114013670,26.9970397949218750,68,124,94,86,56,15087,2248459264,2248906075,2241752841,2153192365,2206928475,2210458770,2197261330,2152535753,1583,1,16,25076
1384039842,5804,58.9599990844726560,26.9437007904052730,35.4107017517089840,238.7781066894531200,-52.4515609741210940,26.8228607177734380,27.0374107360839840,66,128,93,86,50,15087,2268810194,2269035337,2260177618,2155227483,2221472466,2224860653,2207990710,2153907108,1603,1,16,15903
1384039921,5807,57.8300018310546900,27.2833995819091800,35.4085998535156250,234.1085052490234400,-64.7722625732421900,27.2122592926025400,27.0954704284667970,61,128,91,86,55,15088,2191511131,2186809188,2180749668,2150018267,2175621549,2173885677,2166816923,2149316772,1702,2,16,37901
1384040173,5809,55.3899993896484400,27.3885002136230470,35.4058990478515600,227.9217987060547000,-69.5860824584961000,27.3647098541259770,27.3189296722412100,59,117,88,84,59,15120,2264285814,2263992722,2255971401,2156429814,2227035273,2228547364,2209242788,2154387099,2139,1,16,15726
1384040264,5809,53.3600006103515600,27.4099006652832030,35.4062995910644500,226.5010070800781200,-71.0550079345703100,27.4112701416015620,27.3671092987060550,58,120,89,85,55,15112,2268039771,2268046774,2260824996,2157714578,2230545526,2231044909,2210874624,2154679917,2380,1,16,59131
1384040343,5803,51.2999992370605500,27.4167995452880860,35.4067993164062500,225.5435028076172000,-71.5437927246093800,27.4267597198486330,27.4059200286865230,57,120,89,84,56,15122,2283874358,2283664576,2276029851,2159876608,2243459437,2243661723,2220264411,2155864932,2624,1,16,21402
1384040430,5808,48.2799987792968750,27.4298992156982420,35.4053001403808600,224.7525024414062500,-71.8889923095703100,27.4377098083496100,27.4387207031250000,55,117,90,82,52,15122,2288708187,2286839113,2279388754,2162355090,2255214043,2253543122,2226577097,2156921106,3159,1,16,6971
1384040494,5803,45.3600006103515600,27.4321994781494140,35.4051017761230500,224.2505950927734400,-71.9409179687500000,27.4393501281738280,27.4617500305175780,54,117,90,82,55,15119,2296725257,2295792146,2288603428,2165354020,2273502628,2269150893,2236162084,2158186075,2738,0,16,35768
1384040549,5809,42.6599998474121100,27.4314994812011720,35.4056015014648440,224.0079040527343800,-71.8898773193359400,27.4377307891845700,27.4737701416015620,56,118,87,83,52,15121,2308500516,2308619008,2301847469,2169385764,2291576749,2284193536,2244996900,2159648731,2517,0,16,2724
1384040604,5807,39.9399986267089840,27.4340000152587900,35.4058990478515600,223.9013977050781200,-71.8927307128906200,27.4378299713134770,27.4787292480468750,56,117,89,83,56,15120,2324784438,2327128064,2321636114,2174189613,2313251200,2302755209,2256584978,2161730688,2424,1,17,51646
1384040659,5810,37.2799987792968750,27.4361000061035160,35.4053993225097660,223.8840026855468800,-71.9110336303711000,27.4384098052978500,27.4793491363525400,56,118,89,84,54,15114,2329723017,2331055332,2325423140,2179499456,2331637339,2317664310,2265198299,2163417078,2369,0,16,45472
1384040717,5805,34.4199981689453100,27.4353008270263670,35.4048004150390600,223.8921966552734400,-71.8894882202148400,27.4377193450927730,27.4792900085449220,54,118,89,82,55,15119,2339825344,2341498669,2336427584,2186076324,2356871853,2339254016,2278518491,2166214948,2296,1,17,22983
1384040772,5810,31.4500007629394530,27.4381008148193360,35.4052009582519500,223.7823028564453000,-72.0264816284179700,27.4420700073242200,27.4828605651855470,53,117,90,82,54,15118,2356892937,2359225837,2354462976,2194844918,2383350829,2362634093,2293669750,2169243501,2122,0,16,60373
1384040827,5808,28.3700008392334000,27.4416999816894530,35.4048004150390600,223.8630981445312500,-72.0717163085937500,27.4435005187988280,27.4784297943115230,53,116,88,84,54,15121,2366378880,2368585664,2365312713,2206608484,2407000850,2381432420,2304578770,2173067428,1957,0,16,44290
1384040882,5816,25.2299995422363280,27.4423007965087900,35.4038009643554700,223.8294067382812500,-72.1648635864257800,27.4464492797851560,27.4788799285888670,52,116,89,83,59,15123,2400008466,2406351460,2407509275,2229883602,2439362560,2410055926,2323701037,2178337947,1810,0,17,35733
